User: anonymous   Login
Location: El Conde
(10.2895°N, 67.2409°W)
Time: 12:23:34
(UTC+00:00)
Language:

ATLAS 2AS CENTAUR RB - Orbit

View from above orbital plane
View from above orbital plane
View from above satellite
View from above satellite

Ground track
Ground track

The orbit data is extracted from the following two-line orbital elements,

1 28155U 04003B   24198.81337781  .00017086  00000-0  39797-2 0  9999
2 28155  12.6644  39.9749 6275952  62.1534 347.0540  3.63201343222154
Epoch (UTC): 16 July 2024 19:31:15
Eccentricity: 0.6275952
inclination: 12.6644°
perigee height: 279 km
apogee height: 22719 km
right ascension of ascending node: 39.9749°
argument of perigee: 62.1534°
revolutions per day: 3.63201343
mean anomaly at epoch: 347.0540°
orbit number at epoch: 22215

The dashed part of the orbit path shows where the satellite is in the earth's shadow,  

DLR